Home > Weather > Norway > Indre Arna > Past weeks

Flag for Norway Weather past 2 weeks in Indre Arna, Norway

39 °F

Drizzle. Fog.

Feels Like: 30 °F
Forecast: 34 / 41 °F
Wind: 18 mph from Southeast

Location: Bergen / Flesland

Current Time: Dec 2, 2015 at 6:49:05 AM

Latest Report: Dec 2, 2015 at 5:20 AM

Visibility: 3 mi

Pressure: 29.65 "Hg

Humidity: 93%

Dew point: 37 °F

Location of Indre ArnaLocation

Historic Weather in Indre Arna — Graph


Indre Arna temperature yesterday

Maximum temperature yesterday: 43 °F (at 5:50 AM)
Minimum temperature yesterday: 36 °F (at 12:50 AM)
Average temperature yesterday: 39 °F

Past Weeks' High & Low Weather Summary

High50 °F (Nov 26, 10:20 PM)100% (Nov 18, 7:50 AM)30.01 "Hg (Nov 18, 7:50 AM)
Low25 °F (Nov 22, 3:50 AM)56% (Nov 22, 1:50 PM)28.82 "Hg (Nov 29, 5:20 PM)
Average38 °F86%29.44 "Hg
* Reported Nov 17 3:50 AM — Dec 2 3:50 AM, Indre Arna, Weather by CustomWeather, © 2015

Note: Actual official high and low records may vary slightly from our data, if they occured in-between our weather recording intervals... More about our weather records


Indre Arna weather history for previous 24 hours

Time TempWeatherWind HumidityBarometerVisibility
3:50 AM
Wed, Dec 2
37 °FLight rain. Passing clouds.15 mph93%29.71 "Hg6 mi
2:50 AM37 °FRain. Passing clouds.14 mph87%29.74 "Hg5 mi
12:50 AM39 °FLight rain. Passing clouds.18 mph70%29.80 "HgN/A
12:20 AM39 °FPassing clouds.10 mph70%29.83 "HgN/A
11:50 PM
Tue, Dec 1
39 °FPassing clouds.10 mph70%29.83 "HgN/A
10:50 PM39 °FPassing clouds.12 mph75%29.86 "HgN/A
10:20 PM37 °FPassing clouds.10 mph81%29.86 "HgN/A
9:50 PM37 °FPassing clouds.12 mph81%29.86 "HgN/A
9:20 PM37 °FPassing clouds.9 mph81%29.89 "HgN/A
8:50 PM37 °FPassing clouds.8 mph81%29.89 "HgN/A
8:20 PM37 °FPassing clouds.6 mph81%29.89 "HgN/A
7:50 PM37 °FPassing clouds.7 mph81%29.89 "HgN/A
7:20 PM37 °FPassing clouds.8 mph81%29.89 "HgN/A
6:50 PM36 °FPassing clouds.5 mph87%29.89 "HgN/A
6:20 PM36 °FPassing clouds.2 mph81%29.89 "HgN/A
5:50 PM36 °FPassing clouds.5 mph87%29.89 "HgN/A
5:20 PM36 °FPassing clouds.5 mph87%29.92 "HgN/A
4:50 PM37 °FPassing clouds.6 mph81%29.92 "HgN/A
4:20 PM37 °FPassing clouds.6 mph81%29.92 "HgN/A
3:50 PM37 °FScattered showers. Passing clouds.6 mph81%29.89 "HgN/A
3:20 PM37 °FScattered showers. Scattered clouds.2 mph81%29.92 "HgN/A
2:50 PM37 °FScattered showers. Passing clouds.5 mph81%29.89 "HgN/A
2:20 PM39 °FScattered showers. Scattered clouds.5 mph81%29.89 "HgN/A
1:50 PM37 °FScattered showers. Scattered clouds.5 mph87%29.89 "HgN/A
1:20 PM41 °FScattered clouds.5 mph70%29.89 "HgN/A
12:50 PM39 °FPassing clouds.3 mph75%29.86 "HgN/A
12:20 PM39 °FScattered showers. Scattered clouds.10 mph70%29.86 "HgN/A
11:50 AM41 °FScattered showers. Scattered clouds.14 mph70%29.83 "HgN/A
11:20 AM41 °FScattered showers. Scattered clouds.7 mph70%29.83 "HgN/A
10:50 AM41 °FScattered showers. Scattered clouds.7 mph66%29.83 "HgN/A
10:20 AM41 °FScattered showers. Scattered clouds.7 mph61%29.80 "HgN/A
9:50 AM41 °FScattered clouds.10 mph61%29.80 "HgN/A
7:50 AM41 °FScattered showers. Passing clouds.15 mph66%29.71 "HgN/A
7:20 AM41 °FRain showers. Passing clouds.26 mph66%29.71 "HgN/A
6:50 AM41 °FPassing clouds.17 mph66%29.71 "HgN/A
6:20 AM43 °FPassing clouds.18 mph57%29.68 "HgN/A
Weather by CustomWeather, © 2015

See weather overviewHow to use our weather pages